Location: Haliburton Scout Reserve
(45.0900°N, 78.3200°W)
Time: 08:09:31
(UTC-04:00)

S-56A Canister/Altair - Pass Details

Date: 02 February 2023
Orbit: 639 x 2493 km, 38.9° (Epoch: 27 March)

Event Time Altitude Azimuth Distance (km) Brightness Sun altitude
Rises 11:09:03 0° 222° (SW) 2,928 10.9 25.7°
Reaches altitude 10° 11:11:33 10° 208° (SSW) 2,069 10.5 25.8°
Maximum altitude 11:15:19 25° 153° (SSE) 1,461 11.8 26.0°
Drops below altitude 10° 11:19:49 10° 100° (E) 2,509 10.6 26.3°
Sets 11:23:11 0° 88° (E) 3,719 11.2 26.5°
